Content
SEND FEEDBACK

Daily
Averages
Monthly
Summary
United States of America

DOUGLASS, TEXAS


Home > North America > United States > Texas
Elevation: 360 feet     Latitude: 31 40N     Longitude: 094 53W

WEATHER
 
SELECT A DAY
Number of Records: 442,383;   Date Range: 1/1/95 - 7/26/14
 
SHARE

PRINT THIS DATA

[ ← Previous Day ]
WEATHER ALMANAC - JANUARY 23, 2013
[ Next Day → ]
[ °C ]   °F
Weather ElementAverageHighLow
Temperature56.3 °F73.4 °F (3:15 pm)41 °F (6:55 am)
Dewpoint47 °F55.4 °F (12:35 pm)37.4 °F (5:55 am)
Humidity73.2 %94 % (9:55 am)41 % (3:15 pm)
Barometer30.28 in30.36 in (9:55 am)30.21 in (7:35 pm)
Wind Speed5.3 mph13.8 mph (3:15 pm)
Wind Gust16.1 mph (1:15 pm)
Weather ElementAverage
Visibility8.3 mi
Wind DirectionSSE (150.1 °)

Weather ElementTotal
Precipitation---
Heating Degree Days7.8 (Base 65)
Growing Degree Days7.2 (Base 50)
Averaged from 71 records on January 23, 2013
WEATHER CONDITIONS BREAKOUT
WIND DIRECTION BREAKOUT
WEATHER BY HOUR - JANUARY 23, 2013
[ °C ]   °F
Local TimeTemperatureDewpointHumidityBarometerVisibilityWind DirectionWind SpeedGust SpeedPrecipitationEventsConditions
12:35 AM44.6 °F39.2 °F81 %30.29 in7.0 miCalmScattered Clouds
12:55 AM44.6 °F39.2 °F81 %30.29 in9.0 miCalmPartly Cloudy
1:15 AM44.6 °F39.2 °F81 %30.29 in9.0 miCalmClear
1:35 AM42.8 °F39.2 °F87 %30.29 in5.0 miCalmClear
1:55 AM46.4 °F42.8 °F87 %30.29 in10.0 miSouth (180°)4.6 mphClear
2:15 AM48.2 °F44.6 °F87 %30.29 in10.0 miSouth (170°)4.6 mphClear
2:35 AM48.2 °F42.8 °F82 %30.29 in10.0 miSouth (170°)3.5 mphClear
2:55 AM48.2 °F42.8 °F82 %30.29 in10.0 miSouth (170°)3.5 mphClear
3:15 AM48.2 °F42.8 °F82 %30.29 in10.0 miSouth (170°)4.6 mphClear
3:35 AM46.4 °F42.8 °F87 %30.29 in10.0 miSSE (160°)3.5 mphClear
3:55 AM44.6 °F39.2 °F81 %30.29 in8.0 miCalmClear
4:15 AM46.4 °F42.8 °F87 %30.28 in10.0 miSouth (170°)3.5 mphClear
4:35 AM46.4 °F42.8 °F87 %30.29 in10.0 miCalmClear
4:55 AM46.4 °F42.8 °F87 %30.29 in10.0 miCalmClear
5:15 AM46.4 °F42.8 °F87 %30.30 in10.0 miSE (140°)3.5 mphClear
5:35 AM44.6 °F41.0 °F87 %30.30 in10.0 miSE (130°)3.5 mphClear
5:55 AM42.8 °F37.4 °F81 %30.30 in5.0 miCalmScattered Clouds
6:15 AM42.8 °F39.2 °F87 %30.31 in3.0 miESE (120°)3.5 mphMostly Cloudy
6:35 AM42.8 °F39.2 °F87 %30.32 in5.0 miCalmOvercast
6:55 AM41.0 °F37.4 °F87 %30.32 in4.0 miCalmScattered Clouds
7:15 AM42.8 °F39.2 °F87 %30.33 in2.5 miCalmClear
7:35 AM41.0 °F37.4 °F87 %30.33 in2.0 miCalmClear
7:55 AM42.8 °F37.4 °F81 %30.33 in4.0 miCalmMostly Cloudy
8:15 AM44.6 °F42.8 °F93 %30.32 in3.0 miCalmOvercast
8:35 AM48.2 °F44.6 °F87 %30.33 in0.2 miSSE (160°)3.5 mphOvercast
8:55 AM48.2 °F44.6 °F87 %30.34 in0.2 miSouth (170°)3.5 mphOvercast
9:15 AM48.2 °F46.4 °F93 %30.35 in0.2 miSSW (200°)4.6 mphOvercast
9:35 AM51.8 °F48.2 °F88 %30.35 in0.2 miSouth (170°)4.6 mphOvercast
9:55 AM51.8 °F50.0 °F94 %30.36 in0.8 miSouth (180°)3.5 mphOvercast
10:15 AM53.6 °F50.0 °F88 %30.36 in3.0 miSouth (190°)6.9 mphOvercast
10:35 AM53.6 °F51.8 °F94 %30.36 in9.0 miSSW (210°)5.8 mphMostly Cloudy
10:55 AM57.2 °F53.6 °F88 %30.36 in10.0 miSouth (190°)6.9 mphPartly Cloudy
11:15 AM60.8 °F53.6 °F77 %30.35 in10.0 miSouth (190°)9.2 mphClear
11:35 AM64.4 °F53.6 °F68 %30.34 in10.0 miSSW (210°)8.1 mphClear
11:55 AM66.2 °F53.6 °F64 %30.33 in10.0 miSW (230°)10.4 mphClear
12:15 PM66.2 °F53.6 °F64 %30.32 in10.0 miWSW (240°)9.2 mphClear
12:35 PM66.2 °F55.4 °F68 %30.30 in10.0 miSSW (200°)11.5 mphClear
12:55 PM68.0 °F53.6 °F60 %30.29 in10.0 miWSW (250°)10.4 mphClear
1:15 PM69.8 °F55.4 °F60 %30.28 in10.0 miSSW (210°)8.1 mph16.1 mphClear
1:35 PM69.8 °F53.6 °F56 %30.26 in10.0 miWSW (240°)10.4 mphClear
1:55 PM71.6 °F51.8 °F50 %30.25 in10.0 miSouth (190°)12.7 mphClear
2:15 PM71.6 °F51.8 °F50 %30.25 in10.0 miSSW (200°)11.5 mphClear
2:35 PM71.6 °F53.6 °F53 %30.25 in10.0 miSW (220°)8.1 mphClear
2:55 PM71.6 °F50.0 °F46 %30.24 in10.0 miSSW (200°)9.2 mphClear
3:15 PM73.4 °F48.2 °F41 %30.24 in10.0 miSSW (200°)13.8 mphClear
3:35 PM71.6 °F48.2 °F43 %30.24 in10.0 miSSW (200°)11.5 mphClear
3:55 PM71.6 °F46.4 °F41 %30.24 in10.0 miSouth (180°)8.1 mphClear
4:15 PM71.6 °F46.4 °F41 %30.24 in10.0 miSSW (200°)10.4 mphClear
4:35 PM71.6 °F46.4 °F41 %30.23 in10.0 miSW (220°)10.4 mphClear
4:55 PM69.8 °F48.2 °F46 %30.23 in10.0 miSSW (210°)10.4 mphClear
5:15 PM69.8 °F50.0 °F49 %30.23 in10.0 miSSW (210°)9.2 mphClear
5:35 PM66.2 °F48.2 °F52 %30.23 in10.0 miSSW (200°)8.1 mphClear
5:55 PM64.4 °F48.2 °F56 %30.23 in10.0 miSouth (180°)4.6 mphClear
6:15 PM64.4 °F48.2 °F56 %30.22 in10.0 miSouth (180°)3.5 mphClear
6:35 PM62.6 °F48.2 °F59 %30.22 in10.0 miSouth (170°)3.5 mphClear
6:55 PM62.6 °F48.2 °F59 %30.22 in10.0 miSouth (180°)4.6 mphClear
7:15 PM62.6 °F48.2 °F59 %30.22 in10.0 miSouth (180°)4.6 mphClear
7:35 PM62.6 °F48.2 °F59 %30.21 in10.0 miSouth (170°)3.5 mphClear
7:55 PM59.0 °F48.2 °F67 %30.21 in10.0 miSouth (190°)4.6 mphClear
8:15 PM59.0 °F48.2 °F67 %30.21 in10.0 miSSE (150°)3.5 mphClear
8:35 PM57.2 °F48.2 °F72 %30.22 in10.0 miSouth (170°)5.8 mphClear
8:55 PM59.0 °F50.0 °F72 %30.23 in10.0 miSouth (190°)5.8 mphClear
9:15 PM57.2 °F50.0 °F77 %30.23 in10.0 miSouth (190°)5.8 mphClear
9:35 PM57.2 °F51.8 °F82 %30.23 in10.0 miSouth (190°)5.8 mphClear
9:55 PM59.0 °F51.8 °F77 %30.23 in10.0 miSouth (190°)5.8 mphClear
10:15 PM57.2 °F51.8 °F82 %30.23 in10.0 miSouth (180°)5.8 mphClear
10:35 PM57.2 °F51.8 °F82 %30.24 in10.0 miSouth (180°)5.8 mphClear
10:55 PM57.2 °F51.8 °F82 %30.24 in10.0 miSouth (180°)4.6 mphClear
11:15 PM55.4 °F51.8 °F88 %30.24 in10.0 miSouth (180°)4.6 mphClear
11:35 PM55.4 °F51.8 °F88 %30.23 in10.0 miSouth (180°)6.9 mphClear
11:55 PM57.2 °F51.8 °F82 %30.23 in10.0 miSouth (180°)5.8 mphClear
Hourly data recorded from KOCH, located miles away from Douglass, Texas







STORIES FROM OUR PARTNERS